LEMUR-2-TRUTNAHD

Last updated on Nov. 14, 2018, 12:02 a.m. UTC

1 42069U 98067LE  18317.41612592  .10409091  12363-4  80363-3 0  9997
2 42069  51.6091 277.8449 0001444 157.4191 202.7513 16.39515188 96953

Satellite is not in orbit.